Tracking 19832 objects as of 24-Aug-2019
HD Live streaming from Space Station
objects crossing your sky now

COSMOS 2251 DEB

Track COSMOS 2251 DEB now!
10-day predictions


NORAD ID: 34465
Int'l Code: 1993-036TJ
Perigee: 659.2 km
Apogee: 793.6 km
Inclination: 74.1 °
Period: 99.2 minutes
Semi major axis: 7097 km
RCS: 0.028 m2 (small)
Launch date: June 16, 1993
Source: Commonwealth of Independent States (former USSR) (CIS)
Launch site: PLESETSK MISSILE AND SPACE COMPLEX (PKMTR)

Note: This is SATELLITE DEBRIS
aabbcc
Your satellite tracking list
Your tracking list is empty




NASA's NSSDC Master Catalog

Two Line Element Set (TLE):
1 34465U 93036TJ  19235.71408713 +.00000500 +00000-0 +12393-3 0  9990
2 34465 074.0742 101.9699 0094685 357.7290 002.3427 14.51972075552436
Source of the keplerian elements: AFSPC